"2019/01/01",1023.7,1027.2,1018.4
"2019/01/02",1021.2,1023.1,1018.4
"2019/01/03",1023.9,1028.1,1021.2
"2019/01/04",1029.4,1031.3,1027.4
"2019/01/05","  * ","  * ","  * "
"2019/01/06","  * ","  * ","  * "
"2019/01/07",1020.2,1021.8,1018.5
"2019/01/08",1016.3,1020.7,1011.0
"2019/01/09",1019.9,1024.8,1010.6
"2019/01/10",1018.8,1024.6,1012.6
"2019/01/11",1018.1,1023.2,1012.5
"2019/01/12",1022.0,1022.7,1019.4
"2019/01/13","  * ","  * ","  * "
"2019/01/14","  * ","  * ","  * "
"2019/01/15",1016.9,1023.6,1010.8
"2019/01/16",1012.8,1016.0,1008.8
"2019/01/17",1011.3,1015.5,1007.5
"2019/01/18",1016.7,1020.0,1010.0
"2019/01/19",1020.7,1023.0,1018.5
"2019/01/20",1008.7,1018.6,1001.3
"2019/01/21",1010.4,1012.9,1006.7
"2019/01/22",1012.6,1016.3,1010.0
"2019/01/23",1013.1,1017.1,1007.8
"2019/01/24",1013.6,1017.7,1008.7
"2019/01/25",1016.2,1019.1,1010.4
"2019/01/26",1007.6,1011.3,1004.4
"2019/01/27",1017.4,1021.5,1011.1
"2019/01/28",1013.7,1021.2,1007.1
"2019/01/29",1017.5,1025.3,1009.3
"2019/01/30",1024.2,1028.3,1018.2
"2019/01/31",1009.6,1018.2,1003.9
"2019/02/01",1011.2,1016.8,1004.5
"2019/02/02",1018.1,1021.8,1016.1
"2019/02/03",1018.9,1023.4,1009.0
"2019/02/04",1009.4,1018.9,1001.5
"2019/02/05",1024.1,1026.2,1018.8
"2019/02/06",1016.7,1024.0,1008.6
"2019/02/07",1010.7,1016.2,1005.0
"2019/02/08",1015.6,1021.0,1007.9
"2019/02/09",1018.5,1021.8,1014.4
"2019/02/10",1024.4,1028.8,1017.2
"2019/02/11",1025.2,1029.1,1020.0
"2019/02/12",1024.1,1026.7,1019.7
"2019/02/13",1023.8,1025.8,1021.8
"2019/02/14",1026.1,1029.7,1022.9
"2019/02/15",1024.3,1029.0,1015.5
"2019/02/16",1010.9,1015.8,1007.0
"2019/02/17",1016.2,1020.6,1012.4
"2019/02/18",1024.5,1028.1,1020.6
"2019/02/19",1022.5,1028.0,1011.3
"2019/02/20",1012.0,1014.1,1009.8
"2019/02/21",1018.1,1022.1,1013.8
"2019/02/22",1022.1,1023.2,1021.4
"2019/02/23","  * ","  * ","  * "
"2019/02/24","  * ","  * ","  * "
"2019/02/25",1014.1,1016.6,1012.5
"2019/02/26",1018.7,1023.0,1014.8
"2019/02/27",1025.1,1027.8,1022.9
"2019/02/28",1015.4,1023.1,1009.9
"2019/03/01",1015.6,1017.9,1011.9
"2019/03/02",1019.6,1021.4,1017.8
"2019/03/03",1017.2,1021.3,1011.2
"2019/03/04",1005.9,1011.3,1000.6
"2019/03/05",1019.0,1025.0,1010.7
"2019/03/06",1018.1,1024.1,1010.1
"2019/03/07",1005.1,1010.5,1001.7
"2019/03/08",1019.5,1026.5,1010.4
"2019/03/09",1025.2,1028.5,1022.2
"2019/03/10",1018.7,1022.7,1009.1
"2019/03/11", 997.2,1009.1, 990.6
"2019/03/12",1005.6,1007.7,1002.6
"2019/03/13",1006.4,1013.7,1001.8
"2019/03/14",1017.8,1022.3,1013.6
"2019/03/15",1020.6,1024.4,1015.1
"2019/03/16",1013.6,1018.3,1010.0
"2019/03/17",1017.9,1021.2,1014.1
"2019/03/18",1023.2,1026.3,1020.3
"2019/03/19",1017.1,1020.4,1013.6
"2019/03/20",1018.8,1020.6,1016.4
"2019/03/21",1008.7,1018.4,1001.9
"2019/03/22",1003.7,1011.7,1000.1
"2019/03/23",1013.0,1015.1,1010.4
"2019/03/24",1015.8,1019.5,1013.2
"2019/03/25",1018.3,1020.9,1016.0
"2019/03/26",1011.9,1016.6,1006.9
"2019/03/27",1011.7,1016.3,1005.1
"2019/03/28",1008.2,1014.8,1002.4
"2019/03/29",1017.8,1019.6,1014.6
"2019/03/30",1014.3,1018.8,1007.9
"2019/03/31",1007.2,1012.4,1004.8
"2019/04/01",1012.9,1014.7,1010.2
"2019/04/02",1015.2,1017.8,1012.2
"2019/04/03",1018.1,1019.6,1016.1
"2019/04/04",1014.7,1019.1,1011.4
"2019/04/05",1005.3,1011.6, 999.4
"2019/04/06",1007.8,1010.7,1002.6
"2019/04/07",1008.0,1010.8,1004.7
"2019/04/08",1009.0,1011.7,1006.7
"2019/04/09",1016.8,1020.5,1011.5
"2019/04/10",1013.0,1019.8,1001.3
"2019/04/11",1007.5,1016.0,1000.4
"2019/04/12",1016.9,1018.2,1015.7
"2019/04/13","  * ","  * ","  * "
"2019/04/14","  * ","  * ","  * "
"2019/04/15","  * ","  * ","  * "
"2019/04/16",1019.8,1021.6,1017.8
"2019/04/17",1017.7,1020.8,1013.9
"2019/04/18",1013.4,1015.1,1011.5
"2019/04/19",1011.6,1014.1,1008.9
"2019/04/20",1016.9,1019.9,1013.2
"2019/04/21",1014.6,1016.1,1012.9
"2019/04/22",1015.6,1021.1,1013.1
"2019/04/23",1022.2,1024.3,1020.8
"2019/04/24",1017.8,1021.8,1011.2
"2019/04/25",1005.4,1011.2,1001.7
"2019/04/26",1006.8,1009.3,1005.1
"2019/04/27",1010.1,1017.6,1006.7
"2019/04/28",1022.5,1025.7,1017.4
"2019/04/29",1023.4,1026.0,1020.7
"2019/04/30",1015.4,1020.6,1009.5
"2019/05/01",1002.3,1009.6, 998.7
"2019/05/02",1006.4,1013.2,1000.1
"2019/05/03",1015.2,1017.5,1013.1
"2019/05/04",1019.5,1021.7,1017.0
"2019/05/05",1021.2,1023.7,1019.1
"2019/05/06",1014.6,1020.2,1009.5
"2019/05/07",1011.6,1015.2,1008.8
"2019/05/08",1013.5,1016.2,1010.6
"2019/05/09",1009.9,1012.1,1007.6
"2019/05/10",1012.9,1015.1,1010.2
"2019/05/11",1014.3,1015.8,1012.3
"2019/05/12",1018.6,1021.0,1015.1
"2019/05/13",1020.7,1021.8,1019.6
"2019/05/14",1019.3,1020.5,1017.8
"2019/05/15",1018.3,1019.7,1016.9
"2019/05/16",1017.7,1019.9,1016.6
"2019/05/17",1021.4,1024.0,1018.8
"2019/05/18",1024.6,1025.8,1023.4
"2019/05/19",1024.0,1025.4,1022.1
"2019/05/20",1018.0,1022.4,1012.5
"2019/05/21",1004.7,1012.2,1001.0
"2019/05/22",1007.4,1010.2,1004.6
"2019/05/23",1010.4,1011.9,1009.1
"2019/05/24",1011.9,1014.4,1010.3
"2019/05/25",1017.0,1019.0,1014.0
"2019/05/26",1017.9,1019.7,1016.0
"2019/05/27",1014.5,1017.0,1010.4
"2019/05/28",1007.6,1010.4,1005.5
"2019/05/29",1005.6,1011.3,1003.1
"2019/05/30",1014.0,1016.2,1011.2
"2019/05/31",1012.4,1015.3,1009.0
"2019/06/01",1010.8,1012.6,1009.0
"2019/06/02",1012.3,1014.0,1010.9
"2019/06/03",1011.9,1013.9,1010.7
"2019/06/04",1013.4,1015.1,1011.8
"2019/06/05",1011.7,1013.2,1010.1
"2019/06/06",1012.4,1014.7,1010.2
"2019/06/07",1009.4,1013.6,1000.5
"2019/06/08",1002.1,1008.0, 999.4
"2019/06/09",1009.9,1011.7,1007.6
"2019/06/10",1006.6,1009.0,1004.4
"2019/06/11",1007.1,1009.5,1004.8
"2019/06/12",1010.0,1012.5,1008.2
"2019/06/13",1013.7,1015.9,1012.1
"2019/06/14",1014.8,1016.4,1012.6
"2019/06/15",1002.8,1012.8, 992.6
"2019/06/16", 992.1,1000.7, 987.4
"2019/06/17",1008.9,1014.9,1000.7
"2019/06/18",1013.2,1015.5,1011.0
"2019/06/19",1008.1,1011.3,1005.2
"2019/06/20",1007.6,1010.6,1005.8
"2019/06/21",1010.5,1011.7,1009.0
"2019/06/22",1006.3,1010.4,1003.4
"2019/06/23",1006.7,1009.9,1003.6
"2019/06/24",1011.8,1016.3,1009.2
"2019/06/25",1018.3,1019.8,1015.5
"2019/06/26",1016.2,1019.5,1013.4
"2019/06/27",1008.6,1013.5,1003.5
"2019/06/28",1002.1,1006.4, 999.1
"2019/06/29",1005.2,1007.3,1003.2
"2019/06/30",1001.0,1004.1, 998.0
"2019/07/01",1005.3,1007.3,1002.6
"2019/07/02",1009.0,1011.2,1007.2
"2019/07/03",1012.2,1014.0,1009.9
"2019/07/04",1006.5,1010.0,1002.9
"2019/07/05",1008.3,1009.5,1007.3
"2019/07/06",1006.8,1007.9,1005.7
"2019/07/07",1007.0,1010.2,1004.8
"2019/07/08",1010.6,1011.8,1009.5
"2019/07/09",1011.3,1012.4,1010.1
"2019/07/10",1014.2,1016.9,1011.4
"2019/07/11",1015.7,1017.6,1013.1
"2019/07/12",1008.1,1013.2,1004.5
"2019/07/13",1005.4,1006.4,1004.4
"2019/07/14",1003.5,1006.0,1001.8
"2019/07/15",1009.1,1013.2,1005.5
"2019/07/16",1014.2,1015.1,1012.3
"2019/07/17",1015.0,1016.9,1013.4
"2019/07/18",1015.2,1016.7,1013.4
"2019/07/19",1012.3,1014.2,1010.9
"2019/07/20",1015.6,1017.3,1013.5
"2019/07/21",1016.3,1017.5,1015.3
"2019/07/22",1012.4,1015.3,1010.1
"2019/07/23",1008.0,1010.2,1006.3
"2019/07/24",1008.8,1010.7,1007.1
"2019/07/25",1011.3,1012.7,1010.1
"2019/07/26",1013.1,1014.5,1011.5
"2019/07/27",1011.9,1013.6,1010.5
"2019/07/28",1012.8,1014.9,1009.4
"2019/07/29",1013.4,1014.8,1011.4
"2019/07/30",1012.1,1013.2,1010.2
"2019/07/31",1012.4,1013.2,1011.3
"2019/08/01",1012.6,1014.0,1011.1
"2019/08/02",1012.4,1013.8,1010.6
"2019/08/03",1012.8,1013.7,1011.4
"2019/08/04",1013.7,1015.0,1012.5
"2019/08/05",1013.7,1015.2,1011.8
"2019/08/06",1012.5,1013.7,1010.7
"2019/08/07",1011.4,1013.1,1009.3
"2019/08/08",1010.6,1011.3,1008.9
"2019/08/09",1009.5,1011.2,1007.7
"2019/08/10",1009.5,1010.5,1007.9
"2019/08/11",1010.6,1012.0,1009.2
"2019/08/12",1009.9,1011.4,1008.6
"2019/08/13",1008.0,1009.4,1006.7
"2019/08/14",1007.8,1008.7,1006.8
"2019/08/15",1004.7,1007.1,1001.2
"2019/08/16", 999.5,1001.3, 997.7
"2019/08/17",1002.8,1005.8,1000.1
"2019/08/18",1008.5,1010.7,1005.7
"2019/08/19",1012.8,1014.2,1010.6
"2019/08/20",1011.8,1013.7,1009.2
"2019/08/21",1011.0,1012.1,1009.4
"2019/08/22",1010.7,1012.3,1009.4
"2019/08/23",1006.5,1009.8,1005.0
"2019/08/24",1008.8,1010.3,1007.2
"2019/08/25",1010.8,1013.3,1009.2
"2019/08/26",1014.4,1016.7,1012.3
"2019/08/27",1015.2,1016.5,1013.4
"2019/08/28",1008.4,1013.7,1006.3
"2019/08/29",1007.7,1009.6,1006.3
"2019/08/30",1009.2,1011.5,1006.5
"2019/08/31",1012.8,1015.9,1010.3
"2019/09/01",1018.1,1020.4,1014.5
"2019/09/02",1018.4,1019.8,1016.9
"2019/09/03",1018.4,1019.5,1017.5
"2019/09/04",1019.9,1021.4,1018.3
"2019/09/05",1019.6,1021.0,1018.2
"2019/09/06",1017.8,1019.2,1015.9
"2019/09/07",1016.7,1018.5,1015.1
"2019/09/08",1013.8,1016.1,1009.0
"2019/09/09",1003.4,1012.8, 970.4
"2019/09/10",1014.0,1017.4,1012.4
"2019/09/11",1012.9,1016.1,1009.4
"2019/09/12",1014.2,1017.7,1010.0
"2019/09/13",1018.0,1019.4,1016.4
"2019/09/14",1016.0,1017.9,1013.9
"2019/09/15",1011.2,1014.0,1007.7
"2019/09/16",1004.1,1007.8,1000.7
"2019/09/17",1010.6,1013.9,1005.8
"2019/09/18",1012.7,1014.1,1010.0
"2019/09/19",1014.8,1017.2,1011.6
"2019/09/20",1018.5,1021.3,1016.6
"2019/09/21",1022.3,1023.5,1020.6
"2019/09/22",1019.8,1022.5,1014.3
"2019/09/23",1009.1,1014.4,1004.8
"2019/09/24",1012.1,1015.9,1007.7
"2019/09/25",1020.3,1024.8,1015.8
"2019/09/26",1027.3,1029.2,1024.7
"2019/09/27",1027.7,1029.4,1026.1
"2019/09/28",1023.5,1026.4,1020.9
"2019/09/29",1017.2,1021.0,1014.7
"2019/09/30",1017.7,1020.0,1015.2
"2019/10/01",1021.5,1023.2,1019.4
"2019/10/02",1021.2,1023.0,1019.2
"2019/10/03",1016.7,1019.8,1012.1
"2019/10/04",1005.3,1012.3,1000.6
"2019/10/05",1010.0,1014.0,1004.1
"2019/10/06",1019.0,1023.9,1013.9
"2019/10/07",1022.5,1024.8,1018.3
"2019/10/08",1011.0,1018.4,1006.7
"2019/10/09",1016.3,1021.2,1009.5
"2019/10/10",1020.0,1022.0,1017.4
"2019/10/11",1014.8,1017.5,1012.2
"2019/10/12", 997.6,1012.3, 975.1
"2019/10/13",1009.3,1022.9, 984.3
"2019/10/14",1021.1,1023.8,1018.2
"2019/10/15",1022.4,1025.9,1018.4
"2019/10/16",1025.9,1027.6,1024.8
"2019/10/17",1026.3,1027.7,1024.8
"2019/10/18",1028.1,1030.0,1024.3
"2019/10/19",1017.3,1024.3,1014.0
"2019/10/20",1018.1,1021.6,1014.2
"2019/10/21",1021.0,1023.3,1018.5
"2019/10/22",1013.7,1019.4,1010.0
"2019/10/23",1017.7,1023.2,1012.8
"2019/10/24",1024.1,1026.1,1021.5
"2019/10/25",1012.4,1021.6,1004.8
"2019/10/26",1010.0,1013.0,1004.4
"2019/10/27",1013.3,1016.1,1011.1
"2019/10/28",1019.6,1021.9,1016.0
"2019/10/29",1017.0,1021.1,1012.3
"2019/10/30",1018.1,1020.5,1015.1
"2019/10/31",1019.7,1022.1,1017.4
"2019/11/01",1016.1,1019.6,1013.1
"2019/11/02",1021.2,1023.6,1019.2
"2019/11/03",1016.4,1019.3,1013.8
"2019/11/04",1015.2,1017.1,1013.7
"2019/11/05",1016.4,1018.2,1015.0
"2019/11/06",1015.5,1017.2,1013.9
"2019/11/07",1013.0,1016.4,1009.6
"2019/11/08",1016.6,1019.3,1011.6
"2019/11/09",1017.6,1020.4,1015.4
"2019/11/10",1015.7,1016.9,1014.0
"2019/11/11",1010.1,1015.9,1006.0
"2019/11/12",1014.2,1021.5,1007.1
"2019/11/13",1020.5,1024.9,1013.2
"2019/11/14",1009.8,1015.9,1005.5
"2019/11/15",1017.4,1019.8,1015.6
"2019/11/16",1017.0,1018.4,1015.3
"2019/11/17",1022.9,1028.1,1018.1
"2019/11/18",1017.3,1027.5,1007.1
"2019/11/19",1008.2,1012.4,1005.7
"2019/11/20",1020.1,1027.4,1012.4
"2019/11/21",1031.3,1035.1,1027.2
"2019/11/22",1032.4,1034.9,1028.5
"2019/11/23",1028.0,1029.7,1025.7
"2019/11/24",1018.4,1025.7,1014.1
"2019/11/25",1016.8,1025.1,1013.1
"2019/11/26",1029.7,1031.5,1025.0
"2019/11/27",1023.1,1029.6,1017.9
"2019/11/28",1021.3,1025.3,1017.6
"2019/11/29",1025.3,1027.2,1023.9
"2019/11/30",1028.5,1030.9,1024.3
"2019/12/01",1026.4,1030.6,1021.3
"2019/12/02",1011.8,1021.4,1005.0
"2019/12/03",1013.1,1017.7,1007.1
"2019/12/04",1018.1,1020.4,1016.2
"2019/12/05",1021.1,1023.1,1019.4
"2019/12/06",1025.5,1028.7,1021.5
"2019/12/07",1024.3,1027.7,1019.8
"2019/12/08",1023.5,1028.3,1019.7
"2019/12/09",1028.0,1030.1,1025.8
"2019/12/10",1023.2,1026.1,1020.7
"2019/12/11",1016.5,1020.7,1009.2
"2019/12/12",1012.8,1022.4,1008.6
"2019/12/13",1026.8,1028.9,1022.3
"2019/12/14",1019.7,1026.4,1013.7
"2019/12/15",1026.4,1030.0,1019.7
"2019/12/16",1028.9,1030.6,1026.5
"2019/12/17",1019.5,1026.6,1011.7
"2019/12/18",1012.4,1018.1,1009.6
"2019/12/19",1019.8,1022.2,1017.0
"2019/12/20",1019.0,1025.3,1014.6
"2019/12/21",1024.7,1027.3,1021.9
"2019/12/22",1020.1,1023.6,1012.6
"2019/12/23",1015.3,1017.6,1012.2
"2019/12/24",1022.4,1027.8,1015.4
"2019/12/25",1025.4,1029.2,1018.5
"2019/12/26",1013.6,1018.6,1005.0
"2019/12/27",1004.8,1017.7, 996.1
"2019/12/28",1023.7,1028.7,1017.6
"2019/12/29",1030.5,1032.3,1028.4
"2019/12/30",1024.9,1031.0,1016.5
"2019/12/31",1012.8,1019.9,1005.8
